Location: Baix
(44.7118°N, 4.7648°E)
Time: 06:22:29
(UTC+00:00)

Altair - Visible Passes

Search period start: 27 November 2020 00:00
Search period end: 07 December 2020 00:00
Orbit: 1502 x 1682 km, 47.2° (Epoch: 26 November)

Date Brightness Start Highest point End Pass type
(mag) Time Alt. Az. Time Alt. Az. Time Alt. Az.
27 Nov 9.3 01:56:32 17° ESE 01:56:32 17° ESE 01:58:16 10° ESE visible
27 Nov 8.2 03:54:35 32° SSW 03:54:35 32° SSW 04:00:55 10° SSE visible
27 Nov 8.4 19:02:10 10° SSW 19:07:38 28° SSE 19:07:38 28° SSE visible
27 Nov 9.4 21:04:36 10° WSW 21:05:41 14° WSW 21:05:41 14° WSW visible
28 Nov 8.5 03:31:17 28° S 03:31:17 28° S 03:36:01 10° SSE visible
28 Nov 8.3 18:37:21 10° S 18:44:16 29° SE 18:44:16 29° SE visible
28 Nov 9.0 20:39:27 10° SW 20:42:19 23° SW 20:42:19 23° SW visible
29 Nov 8.9 03:08:00 22° SSE 03:08:00 22° SSE 03:11:06 10° SSE visible
29 Nov 8.3 18:12:33 10° S 18:20:03 27° SE 18:20:52 27° ESE visible
29 Nov 8.5 20:14:19 10° SW 20:18:56 33° SW 20:18:56 33° SW visible
30 Nov 9.2 02:44:44 15° SSE 02:44:44 15° SSE 02:46:10 10° SSE visible
30 Nov 8.4 17:47:48 10° S 17:55:00 25° SE 17:57:26 22° ESE visible
30 Nov 8.0 19:49:11 10° SW 19:55:28 46° SSW 19:55:28 46° SSW visible
01 Dec 8.6 17:23:07 10° S 17:29:58 23° SE 17:33:56 17° E visible
01 Dec 7.6 19:24:05 10° SW 19:31:59 58° S 19:31:59 58° S visible
01 Dec 9.4 21:28:40 10° W 21:30:02 15° W 21:30:02 15° W visible
02 Dec 8.7 16:58:27 10° S 17:04:56 21° SE 17:10:25 12° E visible
02 Dec 7.4 18:58:59 10° SW 19:08:15 61° SSE 19:08:26 61° SE visible
02 Dec 9.0 21:03:27 10° W 21:06:29 24° W 21:06:29 24° W visible
03 Dec 8.9 16:33:54 10° SSE 16:39:54 19° SE 16:45:47 10° E visible
03 Dec 7.5 18:33:54 10° SW 18:43:08 57° SE 18:44:52 51° ESE visible
03 Dec 8.6 20:38:13 10° W 20:42:54 34° W 20:42:54 34° W visible
04 Dec 7.6 18:08:51 10° SW 18:18:01 54° SE 18:21:15 39° E visible
04 Dec 8.1 20:13:00 10° WSW 20:19:17 48° W 20:19:17 48° W visible
05 Dec 7.8 17:43:48 10° SW 17:52:54 50° SE 17:57:36 29° E visible
05 Dec 7.6 19:47:46 10° WSW 19:55:38 66° W 19:55:38 66° W visible
05 Dec 9.6 21:53:03 10° W 21:53:39 12° WNW 21:53:39 12° WNW visible
06 Dec 7.9 17:18:47 10° SSW 17:27:48 47° SE 17:33:54 21° E visible
06 Dec 7.3 19:22:33 10° WSW 19:31:56 87° WNW 19:31:56 87° WNW visible
06 Dec 9.3 21:27:50 10° W 21:29:57 19° WNW 21:29:57 19° WNW visible
